Location: Newark
(51.5033°N, 0.1199°W)
Time: 12:10:50
(UTC+00:00)

PicSat - Pass Details

Date: 22 September 2019
Orbit: 486 x 499 km, 97.5° (Epoch: 17 October)

Event Time Altitude Azimuth Distance (km) Brightness Sun altitude
Exits shadow 20:46:04 18° 20° (NNE) 1,306 ? -25.1°
Drops below altitude 10° 20:47:17 10° 7° (N) 1,717 ? -25.2°
Sets 20:49:34 0° 355° (N) 2,607 ? -25.5°
